Flag for Syria Weather past 2 weeks in Damascus, Syria

Now
68 °F

Clear.


Feels Like: 68 °F
Forecast: 51 / 87 °F
Wind: 14 mph from Southwest

Location: Damascus Int. Airport

Current Time: Sep 21, 2014 at 11:38:34 PM

Latest Report: Sep 21, 2014 at 11:00 PM


Visibility: 10 mi

Pressure: 29.92 "Hg

Humidity: 49%

Dew point: 48 °F

Location of DamascusLocation

Historic Weather in Damascus — Graph

°F

Damascus temperature yesterday

Maximum temperature yesterday: 86 °F (at 3:00 PM)
Minimum temperature yesterday: 57 °F (at 6:00 AM)
Average temperature yesterday: 71 °F

Past Weeks' High & Low Weather Summary

 TemperatureHumidityPressure
High93 °F (Sep 8, 4:00 PM)88% (Sep 9, 5:00 AM)30.07 "Hg (Sep 9, 5:00 AM)
Low55 °F (Sep 10, 6:00 AM)13% (Sep 12, 4:00 PM)29.71 "Hg (Sep 19, 5:00 AM)
Average75 °F52%29.92 "Hg
* Reported Sep 6 10:00 PM — Sep 21 10:00 PM, Damascus, Weather by CustomWeather, © 2014

Note: Actual official high and low records may vary slightly from our data, if they occured in-between our weather recording intervals... More about our weather records

Advertising

Damascus weather history for previous 24 hours

 ConditionsComfort  
Time TempWeatherWind HumidityBarometerVisibility
10:00 PM
Sep 21
70 °FClear.18 mph43%29.92 "Hg10 mi
9:00 PM72 °FClear.14 mph41%29.89 "Hg10 mi
8:00 PM73 °FClear.12 mph33%29.89 "Hg10 mi
7:00 PM77 °FSunny.18 mph28%29.86 "Hg10 mi
6:00 PM79 °FSunny.18 mph24%29.86 "Hg10 mi
5:00 PM86 °FSunny.16 mph20%29.86 "Hg10 mi
4:00 PM88 °FSunny.12 mph17%29.86 "Hg10 mi
3:00 PM86 °FSunny.9 mph18%29.86 "Hg10 mi
2:00 PM84 °FSunny.7 mph22%29.89 "Hg10 mi
1:00 PM84 °FSunny.5 mph22%29.92 "Hg10 mi
12:00 PM81 °FSunny.5 mph37%29.95 "Hg10 mi
11:00 AM77 °FPassing clouds.5 mph47%29.98 "HgN/A
10:00 AM73 °FSunny.7 mph57%29.95 "Hg10 mi
9:00 AM68 °FSunny.5 mph56%29.95 "Hg10 mi
8:00 AM59 °FSunny.5 mph72%29.95 "Hg10 mi
7:00 AM70 °FPassing clouds.6 mph78%29.86 "Hg10 mi
6:00 AM57 °FClear.5 mph72%29.92 "Hg10 mi
5:00 AM57 °FClear.5 mph72%29.92 "Hg10 mi
4:00 AM61 °FClear.5 mph63%29.92 "Hg10 mi
3:00 AM64 °FClear.12 mph60%29.92 "Hg10 mi
2:00 AM66 °FClear.12 mph56%29.92 "Hg10 mi
1:00 AM66 °FClear.12 mph60%29.92 "Hg10 mi
12:00 AM68 °FClear.16 mph56%29.92 "Hg10 mi
11:00 PM
Sep 20
70 °FClear.18 mph53%29.92 "Hg10 mi
Weather by CustomWeather, © 2014

See weather overviewHow to use our weather pages